STARLINK-32501

Last updated on Thu Nov 21 2024 00:02:06 GMT+0000 (Coordinated Universal Time)

1 61890U 24204S 24325.58335648 -.01239440 00000+0 -67770-2 0 9997 2 61890 53.1643 174.8495 0001015 105.1869 186.4349 15.81839652 3021
UTC large
Height (km)
Speed (km/s)
/
Latitude / Longitude
Inclination (degrees)
Orbital Period (minutes)
Azimuth
Elevation
Range (km)
Doppler Factor

Next 0 passes for location: London (51.5072 / 0.1276)

Sorry there are no passes over London.